STARLINK-11503, 63142

Orbit data source: Space-Track

STARLINK-11503, 63142 is a payload satellite owned by SpaceX/Seattle (US) in LEO that was launched on Mon, 03 Mar 2025 UTC via an FALCON 9 launch vehicle from the Air Force Eastern Test Range (AFETR). Payload-class satellites include a variety of spacecraft equipped with specific instruments for various scientific and technological missions. These include communications satellites like Starlink; space stations such as the ISS; scientific satellites like the Hubble; Earth observation satellites from companies like Planet Labs, Umbra, and HawkEye 360; GPS; miniature CubeSats for education and research; and military/defense satellites.

Loading next visibility...
Identifier
63142, 2025-043L
Orbit
LEO
Country
Flag of USUS
Related business
Manufacturer
SpaceX/Seattle
Mission
Operational Commercial Communications
Bus & Motor
STARLINK V2MD, Unknown motor
Mass
960 kg wet, ~910 kg dry
Launch date (UTC)
2025-03-03 (1 year ago)
Launch vehicle
FALCON 9
Launch site
Air Force Eastern Test Range (AFETR)
Object type
Payload
Rocket body
Debris
Shape & HBR
Box + 2 Pan, 18.1 m
Radar Cross Section
36.964 m², Large (>1 m²)

Expand to show TLE details & history
Last TLE update: 1 day ago

TLE from 1 day ago
0 STARLINK-11503
1 63142U 25043L   26170.91163645  .00175744  00000-0  13434-2 0  9996
2 63142  42.9998 354.1395 0001673 346.0539  14.0282 15.70855874 75375
Epoch: 2026-06-19T21:52Z
TLE epoch observation values (Epoch: 2026-06-19T21:52:45.389Z)
Latitude
-0.00002°
Longitude
117.81654°
Altitude
355.128 km
Speed
7.699 km/s
True Right ascension
23h 36m 33s
True Declination
0° 00' 00"
Sunlit
Object was in daylight at epoch
Visualization orbit readout
Latitude
Unknown
Longitude
Unknown
Altitude
Unknown
Speed
Unknown
Apparent Right ascension
Unknown
Apparent Declination
Unknown
Sunlit
N/A
Visualization observer readout
Local Sidereal Time
10:17:59
Azimuth
Unknown
Elevation
Unknown
Doppler factor
Unknown
Orbital elements
Apogee altitude
359.558 km
Perigee altitude
357.304 km
Semi-major axis
6,736.568 km
Eccentricity
0.00017
Inclination
42.9998°
RAAN
354.1395°
Arg. of periapsis
346.0539°
True anomaly
14.03285°
Mean anomaly
14.0282°
Eccentric anomaly
14.03052°
Mean motion
3.92541 °/min
Orbital period
91.71 mins
BSTAR
0.0013434
Loading maneuver chart data...
Computing Atmospheric mass density...
Loading historical data...
Loading historical data...
Loading historical data...
Loading historical data...
Loading historical data...
Loading historical data...
Loading historical data...

Documentation

Showing up to 5 results
|